This is the latest recevied weather packets stored in our database for station/object IU3NMQ-10. If no packets are shown the sender has not sent any weather packets the latest 10 day(s).
| Time | Temp. | Humidity | Pressure | Rain* | Wind** | Luminosity | Snow |
|---|---|---|---|---|---|---|---|
| 1777909304 | 27.78° C | 38% | 1011.6 hPa | - | - | - | - |
| 1777908404 | 27.22° C | 35% | 1011.7 hPa | - | - | - | - |
| 1777907500 | 27.22° C | 35% | 1011.8 hPa | - | - | - | - |
| 1777906600 | 27.22° C | 37% | 1011.9 hPa | - | - | - | - |
| 1777905700 | 26.67° C | 38% | 1011.9 hPa | - | - | - | - |
| 1777904800 | 27.22° C | 40% | 1012.1 hPa | - | - | - | - |
| 1777903900 | 28.89° C | 38% | 1012.2 hPa | - | - | - | - |
| 1777903000 | 27.78° C | 39% | 1012.3 hPa | - | - | - | - |
| 1777902099 | 27.78° C | 38% | 1012.4 hPa | - | - | - | - |
| 1777901199 | 28.33° C | 36% | 1012.4 hPa | - | - | - | - |
| 1777900299 | 28.33° C | 35% | 1012.5 hPa | - | - | - | - |
| 1777899399 | 28.89° C | 34% | 1012.5 hPa | - | - | - | - |
| 1777898499 | 29.44° C | 33% | 1012.8 hPa | - | - | - | - |
| 1777897599 | 29.44° C | 33% | 1012.8 hPa | - | - | - | - |
| 1777896699 | 30° C | 32% | 1012.9 hPa | - | - | - | - |
| 1777895799 | 31.11° C | 32% | 1012.9 hPa | - | - | - | - |
| 1777894898 | 30.56° C | 33% | 1013 hPa | - | - | - | - |
| 1777893998 | 30° C | 33% | 1013.3 hPa | - | - | - | - |
| 1777893098 | 30° C | 33% | 1013.4 hPa | - | - | - | - |
| 1777892198 | 30° C | 33% | 1013.5 hPa | - | - | - | - |
| 1777891298 | 28.89° C | 33% | 1013.8 hPa | - | - | - | - |
| 1777890398 | 28.33° C | 34% | 1013.9 hPa | - | - | - | - |
| 1777889498 | 26.67° C | 37% | 1013.9 hPa | - | - | - | - |
| 1777888598 | 26.67° C | 37% | 1014.1 hPa | - | - | - | - |
| 1777887697 | 26.11° C | 37% | 1014.2 hPa | - | - | - | - |
* Rain since midnight (hover to see other rain measurements)
** Current wind speed in m/s (hover to see current wind gust speed)